[{"OBJECT_NAME":"IRIDIUM 129","OBJECT_ID":"2017-061D","EPOCH":"2026-09-12T00:29:06.649440","MEAN_MOTION":14.3421734,"ECCENTRICITY":0.00022943,"INCLINATION":86.4029,"RA_OF_ASC_NODE":348.9682,"ARG_OF_PERICENTER":100.0802,"MEAN_ANOMALY":260.0653,"EPHEMERIS_TYPE":0,"CLASSIFICATION_TYPE":"U","NORAD_CAT_ID":42958,"ELEMENT_SET_NO":999,"REV_AT_EPOCH":46724,"BSTAR":0.000044790476,"MEAN_MOTION_DOT":0.00000145,"MEAN_MOTION_DDOT":0},{"OBJECT_NAME":"IRIDIUM 119","OBJECT_ID":"2017-061E","EPOCH":"2026-09-12T04:44:50.758944","MEAN_MOTION":14.34217719,"ECCENTRICITY":0.00022745,"INCLINATION":86.4028,"RA_OF_ASC_NODE":348.8904,"ARG_OF_PERICENTER":94.2788,"MEAN_ANOMALY":265.8668,"EPHEMERIS_TYPE":0,"CLASSIFICATION_TYPE":"U","NORAD_CAT_ID":42959,"ELEMENT_SET_NO":999,"REV_AT_EPOCH":46728,"BSTAR":0.000055784789,"MEAN_MOTION_DOT":0.00000176,"MEAN_MOTION_DDOT":0},{"OBJECT_NAME":"IRIDIUM 107","OBJECT_ID":"2017-061F","EPOCH":"2026-09-12T05:12:14.716800","MEAN_MOTION":14.34217588,"ECCENTRICITY":0.00022665,"INCLINATION":86.4029,"RA_OF_ASC_NODE":348.9041,"ARG_OF_PERICENTER":88.5146,"MEAN_ANOMALY":271.6309,"EPHEMERIS_TYPE":0,"CLASSIFICATION_TYPE":"U","NORAD_CAT_ID":42960,"ELEMENT_SET_NO":999,"REV_AT_EPOCH":46729,"BSTAR":0.000029750357,"MEAN_MOTION_DOT":0.00000103,"MEAN_MOTION_DDOT":0},{"OBJECT_NAME":"IRIDIUM 132","OBJECT_ID":"2017-061G","EPOCH":"2026-09-12T05:21:22.707936","MEAN_MOTION":14.34217483,"ECCENTRICITY":0.0002186,"INCLINATION":86.4029,"RA_OF_ASC_NODE":348.8804,"ARG_OF_PERICENTER":95.0877,"MEAN_ANOMALY":265.0569,"EPHEMERIS_TYPE":0,"CLASSIFICATION_TYPE":"U","NORAD_CAT_ID":42961,"ELEMENT_SET_NO":999,"REV_AT_EPOCH":46729,"BSTAR":0.000016597058,"MEAN_MOTION_DOT":6.6e-7,"MEAN_MOTION_DDOT":0},{"OBJECT_NAME":"IRIDIUM 136","OBJECT_ID":"2017-061H","EPOCH":"2026-09-11T18:23:46.653216","MEAN_MOTION":14.34217576,"ECCENTRICITY":0.0002154,"INCLINATION":86.4029,"RA_OF_ASC_NODE":349.078,"ARG_OF_PERICENTER":94.7802,"MEAN_ANOMALY":265.3639,"EPHEMERIS_TYPE":0,"CLASSIFICATION_TYPE":"U","NORAD_CAT_ID":42962,"ELEMENT_SET_NO":999,"REV_AT_EPOCH":46724,"BSTAR":0.000022565,"MEAN_MOTION_DOT":8.3e-7,"MEAN_MOTION_DDOT":0},{"OBJECT_NAME":"IRIDIUM 139","OBJECT_ID":"2017-061J","EPOCH":"2026-09-11T18:32:54.654720","MEAN_MOTION":14.34217592,"ECCENTRICITY":0.0002169,"INCLINATION":86.403,"RA_OF_ASC_NODE":349.1386,"ARG_OF_PERICENTER":93.0324,"MEAN_ANOMALY":267.112,"EPHEMERIS_TYPE":0,"CLASSIFICATION_TYPE":"U","NORAD_CAT_ID":42963,"ELEMENT_SET_NO":999,"REV_AT_EPOCH":46725,"BSTAR":0.000039815,"MEAN_MOTION_DOT":0.00000131,"MEAN_MOTION_DDOT":0},{"OBJECT_NAME":"IRIDIUM 125","OBJECT_ID":"2017-061K","EPOCH":"2026-09-11T23:16:02.829216","MEAN_MOTION":14.34217772,"ECCENTRICITY":0.0002672,"INCLINATION":86.4033,"RA_OF_ASC_NODE":349.1192,"ARG_OF_PERICENTER":90.3967,"MEAN_ANOMALY":269.7535,"EPHEMERIS_TYPE":0,"CLASSIFICATION_TYPE":"U","NORAD_CAT_ID":42964,"ELEMENT_SET_NO":999,"REV_AT_EPOCH":46729,"BSTAR":0.000039496883,"MEAN_MOTION_DOT":0.0000013,"MEAN_MOTION_DDOT":0},{"OBJECT_NAME":"IRIDIUM 135","OBJECT_ID":"2017-083A","EPOCH":"2026-09-12T03:40:11.164800","MEAN_MOTION":14.34217885,"ECCENTRICITY":0.0002246,"INCLINATION":86.3921,"RA_OF_ASC_NODE":285.6598,"ARG_OF_PERICENTER":91.5779,"MEAN_ANOMALY":268.5674,"EPHEMERIS_TYPE":0,"CLASSIFICATION_TYPE":"U","NORAD_CAT_ID":43070,"ELEMENT_SET_NO":999,"REV_AT_EPOCH":45661,"BSTAR":0.000042019073,"MEAN_MOTION_DOT":0.00000137,"MEAN_MOTION_DDOT":0},{"OBJECT_NAME":"IRIDIUM 138","OBJECT_ID":"2017-083B","EPOCH":"2026-09-12T02:36:15.119712","MEAN_MOTION":14.34218043,"ECCENTRICITY":0.00023939,"INCLINATION":86.3934,"RA_OF_ASC_NODE":285.3873,"ARG_OF_PERICENTER":93.3457,"MEAN_ANOMALY":266.8012,"EPHEMERIS_TYPE":0,"CLASSIFICATION_TYPE":"U","NORAD_CAT_ID":43071,"ELEMENT_SET_NO":999,"REV_AT_EPOCH":45659,"BSTAR":0.000006014423,"MEAN_MOTION_DOT":3.7e-7,"MEAN_MOTION_DDOT":0},{"OBJECT_NAME":"IRIDIUM 116","OBJECT_ID":"2017-083C","EPOCH":"2026-09-12T03:31:03.127872","MEAN_MOTION":14.34217358,"ECCENTRICITY":0.00019146,"INCLINATION":86.3921,"RA_OF_ASC_NODE":285.6473,"ARG_OF_PERICENTER":87.3947,"MEAN_ANOMALY":272.7468,"EPHEMERIS_TYPE":0,"CLASSIFICATION_TYPE":"U","NORAD_CAT_ID":43072,"ELEMENT_SET_NO":999,"REV_AT_EPOCH":45663,"BSTAR":-0.000025022889,"MEAN_MOTION_DOT":-5e-7,"MEAN_MOTION_DDOT":0},{"OBJECT_NAME":"IRIDIUM 130","OBJECT_ID":"2017-083D","EPOCH":"2026-09-12T02:45:23.166144","MEAN_MOTION":14.34217948,"ECCENTRICITY":0.00022061,"INCLINATION":86.393,"RA_OF_ASC_NODE":285.9449,"ARG_OF_PERICENTER":86.9634,"MEAN_ANOMALY":273.1814,"EPHEMERIS_TYPE":0,"CLASSIFICATION_TYPE":"U","NORAD_CAT_ID":43073,"ELEMENT_SET_NO":999,"REV_AT_EPOCH":45657,"BSTAR":0.000011121961,"MEAN_MOTION_DOT":5.1e-7,"MEAN_MOTION_DDOT":0},{"OBJECT_NAME":"IRIDIUM 151","OBJECT_ID":"2017-083E","EPOCH":"2026-09-12T03:49:19.096320","MEAN_MOTION":14.34217739,"ECCENTRICITY":0.00020488,"INCLINATION":86.3922,"RA_OF_ASC_NODE":285.7016,"ARG_OF_PERICENTER":91.3744,"MEAN_ANOMALY":268.7687,"EPHEMERIS_TYPE":0,"CLASSIFICATION_TYPE":"U","NORAD_CAT_ID":43074,"ELEMENT_SET_NO":999,"REV_AT_EPOCH":45660,"BSTAR":9.62773e-7,"MEAN_MOTION_DOT":2.2e-7,"MEAN_MOTION_DDOT":0},{"OBJECT_NAME":"IRIDIUM 134","OBJECT_ID":"2017-083F","EPOCH":"2026-09-12T03:03:39.151008","MEAN_MOTION":14.34217572,"ECCENTRICITY":0.00021336,"INCLINATION":86.3924,"RA_OF_ASC_NODE":285.7244,"ARG_OF_PERICENTER":90.7038,"MEAN_ANOMALY":269.4403,"EPHEMERIS_TYPE":0,"CLASSIFICATION_TYPE":"U","NORAD_CAT_ID":43075,"ELEMENT_SET_NO":999,"REV_AT_EPOCH":45656,"BSTAR":-0.000004361451,"MEAN_MOTION_DOT":8e-8,"MEAN_MOTION_DDOT":0},{"OBJECT_NAME":"IRIDIUM 137","OBJECT_ID":"2017-083G","EPOCH":"2026-09-12T03:21:55.091808","MEAN_MOTION":14.34217598,"ECCENTRICITY":0.00017963,"INCLINATION":86.3925,"RA_OF_ASC_NODE":285.8137,"ARG_OF_PERICENTER":95.8301,"MEAN_ANOMALY":264.31,"EPHEMERIS_TYPE":0,"CLASSIFICATION_TYPE":"U","NORAD_CAT_ID":43076,"ELEMENT_SET_NO":999,"REV_AT_EPOCH":45663,"BSTAR":-0.000001362119,"MEAN_MOTION_DOT":1.6e-7,"MEAN_MOTION_DDOT":0},{"OBJECT_NAME":"IRIDIUM 141","OBJECT_ID":"2017-083H","EPOCH":"2026-09-12T03:12:47.127456","MEAN_MOTION":14.342177,"ECCENTRICITY":0.00021853,"INCLINATION":86.392,"RA_OF_ASC_NODE":285.6419,"ARG_OF_PERICENTER":93.4479,"MEAN_ANOMALY":266.6967,"EPHEMERIS_TYPE":0,"CLASSIFICATION_TYPE":"U","NORAD_CAT_ID":43077,"ELEMENT_SET_NO":999,"REV_AT_EPOCH":45663,"BSTAR":-0.000002882346,"MEAN_MOTION_DOT":1.2e-7,"MEAN_MOTION_DDOT":0},{"OBJECT_NAME":"IRIDIUM 153","OBJECT_ID":"2017-083J","EPOCH":"2026-09-12T07:05:19.150656","MEAN_MOTION":14.34217317,"ECCENTRICITY":0.00024475,"INCLINATION":86.3909,"RA_OF_ASC_NODE":254.0354,"ARG_OF_PERICENTER":89.7222,"MEAN_ANOMALY":270.4255,"EPHEMERIS_TYPE":0,"CLASSIFICATION_TYPE":"U","NORAD_CAT_ID":43078,"ELEMENT_SET_NO":999,"REV_AT_EPOCH":45776,"BSTAR":-0.000002072775,"MEAN_MOTION_DOT":1.4e-7,"MEAN_MOTION_DDOT":0},{"OBJECT_NAME":"IRIDIUM 131","OBJECT_ID":"2017-083K","EPOCH":"2026-09-12T07:55:55.092864","MEAN_MOTION":14.34218653,"ECCENTRICITY":0.00022587,"INCLINATION":86.3926,"RA_OF_ASC_NODE":285.7518,"ARG_OF_PERICENTER":93.8953,"MEAN_ANOMALY":266.2501,"EPHEMERIS_TYPE":0,"CLASSIFICATION_TYPE":"U","NORAD_CAT_ID":43079,"ELEMENT_SET_NO":999,"REV_AT_EPOCH":45659,"BSTAR":0.000065907152,"MEAN_MOTION_DOT":0.00000204,"MEAN_MOTION_DDOT":0},{"OBJECT_NAME":"IRIDIUM 144","OBJECT_ID":"2018-030A","EPOCH":"2026-09-12T02:13:03.411840","MEAN_MOTION":14.3421767,"ECCENTRICITY":0.00021879,"INCLINATION":86.3907,"RA_OF_ASC_NODE":254.0473,"ARG_OF_PERICENTER":88.1872,"MEAN_ANOMALY":271.9574,"EPHEMERIS_TYPE":0,"CLASSIFICATION_TYPE":"U","NORAD_CAT_ID":43249,"ELEMENT_SET_NO":999,"REV_AT_EPOCH":44259,"BSTAR":0.000022207628,"MEAN_MOTION_DOT":8.2e-7,"MEAN_MOTION_DDOT":0},{"OBJECT_NAME":"IRIDIUM 149","OBJECT_ID":"2018-030B","EPOCH":"2026-09-12T05:43:07.338432","MEAN_MOTION":14.34217288,"ECCENTRICITY":0.00022177,"INCLINATION":86.391,"RA_OF_ASC_NODE":253.9524,"ARG_OF_PERICENTER":90.1069,"MEAN_ANOMALY":270.0381,"EPHEMERIS_TYPE":0,"CLASSIFICATION_TYPE":"U","NORAD_CAT_ID":43250,"ELEMENT_SET_NO":999,"REV_AT_EPOCH":44263,"BSTAR":-0.000006826688,"MEAN_MOTION_DOT":1e-8,"MEAN_MOTION_DDOT":0},{"OBJECT_NAME":"IRIDIUM 157","OBJECT_ID":"2018-030C","EPOCH":"2026-09-12T06:10:31.227168","MEAN_MOTION":14.34216558,"ECCENTRICITY":0.00022088,"INCLINATION":86.3911,"RA_OF_ASC_NODE":253.9995,"ARG_OF_PERICENTER":89.157,"MEAN_ANOMALY":270.9879,"EPHEMERIS_TYPE":0,"CLASSIFICATION_TYPE":"U","NORAD_CAT_ID":43251,"ELEMENT_SET_NO":999,"REV_AT_EPOCH":44261,"BSTAR":-0.000026268985,"MEAN_MOTION_DOT":-5.4e-7,"MEAN_MOTION_DDOT":0},{"OBJECT_NAME":"IRIDIUM 140","OBJECT_ID":"2018-030D","EPOCH":"2026-09-12T06:37:55.108128","MEAN_MOTION":14.34217645,"ECCENTRICITY":0.0002343,"INCLINATION":86.3909,"RA_OF_ASC_NODE":254.0038,"ARG_OF_PERICENTER":88.6668,"MEAN_ANOMALY":271.4796,"EPHEMERIS_TYPE":0,"CLASSIFICATION_TYPE":"U","NORAD_CAT_ID":43252,"ELEMENT_SET_NO":999,"REV_AT_EPOCH":44267,"BSTAR":-0.000002280599,"MEAN_MOTION_DOT":1.3e-7,"MEAN_MOTION_DDOT":0},{"OBJECT_NAME":"IRIDIUM 145","OBJECT_ID":"2018-030E","EPOCH":"2026-09-12T06:19:39.274464","MEAN_MOTION":14.34217005,"ECCENTRICITY":0.00019688,"INCLINATION":86.391,"RA_OF_ASC_NODE":253.9812,"ARG_OF_PERICENTER":84.3113,"MEAN_ANOMALY":275.8307,"EPHEMERIS_TYPE":0,"CLASSIFICATION_TYPE":"U","NORAD_CAT_ID":43253,"ELEMENT_SET_NO":999,"REV_AT_EPOCH":44260,"BSTAR":-0.000017218723,"MEAN_MOTION_DOT":-2.8e-7,"MEAN_MOTION_DDOT":0},{"OBJECT_NAME":"IRIDIUM 146","OBJECT_ID":"2018-030F","EPOCH":"2026-09-12T00:50:51.041472","MEAN_MOTION":14.34217351,"ECCENTRICITY":0.00021892,"INCLINATION":86.3907,"RA_OF_ASC_NODE":254.0887,"ARG_OF_PERICENTER":88.1732,"MEAN_ANOMALY":271.9715,"EPHEMERIS_TYPE":0,"CLASSIFICATION_TYPE":"U","NORAD_CAT_ID":43254,"ELEMENT_SET_NO":999,"REV_AT_EPOCH":44258,"BSTAR":0.000006294991,"MEAN_MOTION_DOT":3.7e-7,"MEAN_MOTION_DDOT":0}]